IW8RUI-5 Weather Reports


Display with metric or nautical units.
time (UTC)temp
F
wind
direction
speed
MPH
gust
MPH
rain 1hr
in
rain 24hr
in
rain mn
in
humidity
%
barometer
mb
20260509083928 56 179 0.0 0.0 0.00 0.00 0.00 10 1012.0
20260509083428 55 174 0.0 0.0 0.00 0.00 0.00 10 1012.0
20260509082929 55 188 0.0 0.0 0.00 0.00 0.00 10 1012.0
20260509082429 55 175 0.0 0.0 0.00 0.00 0.00 10 1012.0
20260509081929 55 181 0.0 0.0 0.00 0.00 0.00 10 1012.0
20260509081428 55 174 0.0 0.0 0.00 0.00 0.00 10 1011.0
20260509080928 55 166 0.0 0.0 0.00 0.00 0.00 10 1011.0
20260509080428 55 162 0.0 0.0 0.00 0.00 0.00 10 1011.0
20260509075428 54 160 0.0 0.0 0.00 0.00 0.00 10 1011.0
20260509074928 53 164 0.0 0.0 0.00 0.00 0.00 36 1011.0
20260509074428 53 175 0.0 0.0 0.00 0.00 0.00 41 1011.0
20260509073928 52 185 0.0 0.0 0.00 0.00 0.00 47 1011.0
20260509073428 52 182 0.0 0.0 0.00 0.00 0.00 49 1011.0
20260509072428 52 184 0.0 0.0 0.00 0.00 0.00 55 1011.0
20260509071928 52 168 0.0 0.0 0.00 0.00 0.00 55 1011.0
20260509071428 51 183 0.0 0.0 0.00 0.00 0.00 56 1011.0
20260509070928 51 157 0.0 0.0 0.00 0.00 0.00 56 1011.0
20260509070428 51 174 0.0 0.0 0.00 0.00 0.00 56 1011.0
20260509065928 51 169 0.0 0.0 0.00 0.00 0.00 55 1011.0
20260509065428 51 158 0.0 0.0 0.00 0.00 0.00 55 1011.0
20260509064928 51 175 0.0 0.0 0.00 0.00 0.00 56 1011.0
20260509064509 51 183 0.0 0.0 0.00 0.00 0.00 55 1011.0
20260509064428 51 183 0.0 0.0 0.00 0.00 0.00 55 1011.0
20260509063928 51 167 0.0 0.0 0.00 0.00 0.00 55 1011.0
20260509063428 50 175 0.0 0.0 0.00 0.00 0.00 55 1011.0
20260509062928 50 169 0.0 0.0 0.00 0.00 0.00 54 1011.0
20260509062428 51 181 0.0 0.0 0.00 0.00 0.00 54 1011.0
20260509061928 50 162 0.0 0.0 0.00 0.00 0.00 53 1011.0
20260509061428 51 159 0.0 0.0 0.00 0.00 0.00 54 1011.0
20260509060928 51 170 0.0 0.0 0.00 0.00 0.00 54 1011.0
20260509060428 50 157 0.0 0.0 0.00 0.00 0.00 53 1011.0
20260509055928 50 182 0.0 0.0 0.00 0.00 0.00 53 1011.0
20260509054928 50 161 0.0 0.0 0.00 0.00 0.00 54 1011.0
20260509054428 50 160 0.0 0.0 0.00 0.00 0.00 54 1011.0
20260509053928 50 181 0.0 0.0 0.00 0.00 0.00 54 1011.0
20260509053428 50 177 0.0 0.0 0.00 0.00 0.00 53 1011.0
20260509052928 50 179 0.0 0.0 0.00 0.00 0.00 54 1011.0
20260509052428 50 168 0.0 0.0 0.00 0.00 0.00 54 1011.0
20260509051928 50 164 0.0 0.0 0.00 0.00 0.00 54 1011.0
20260509051428 50 155 0.0 0.0 0.00 0.00 0.00 55 1011.0
20260509050928 50 158 0.0 0.0 0.00 0.00 0.00 55 1011.0
20260509050428 50 155 0.0 0.0 0.00 0.00 0.00 55 1011.0
20260509045928 50 181 0.0 0.0 0.00 0.00 0.00 55 1011.0
20260509045428 50 156 0.0 0.0 0.00 0.00 0.00 54 1011.0
20260509044928 50 155 0.0 0.0 0.00 0.00 0.00 55 1011.0
20260509044430 50 156 0.0 0.0 0.00 0.00 0.00 55 1011.0
20260509043928 50 169 0.0 0.0 0.00 0.00 0.00 55 1011.0
20260509043428 50 173 0.0 0.0 0.00 0.00 0.00 55 1011.0
20260509042928 50 161 0.0 0.0 0.00 0.00 0.00 55 1010.0
20260509042428 50 182 0.0 0.0 0.00 0.00 0.00 55 1010.0
20260509041929 50 174 0.0 0.0 0.00 0.00 0.00 55 1010.0
20260509041428 50 158 0.0 0.0 0.00 0.00 0.00 54 1011.0
20260509040928 50 179 0.0 0.0 0.00 0.00 0.00 54 1011.0
20260509040428 50 162 0.0 0.0 0.00 0.00 0.00 54 1011.0
20260509035928 50 158 0.0 0.0 0.00 0.00 0.00 53 1010.0
20260509035428 50 180 0.0 0.0 0.00 0.00 0.00 51 1010.0
20260509034928 50 171 0.0 0.0 0.00 0.00 0.00 50 1010.0
20260509034428 50 162 0.0 0.0 0.00 0.00 0.00 48 1010.0
20260509033928 50 173 0.0 0.0 0.00 0.00 0.00 48 1010.0
20260509033433 50 161 0.0 0.0 0.00 0.00 0.00 47 1010.0
20260509032928 50 174 0.0 0.0 0.00 0.00 0.00 47 1010.0
20260509032428 50 166 0.0 0.0 0.00 0.00 0.00 47 1010.0
20260509031928 50 162 0.0 0.0 0.00 0.00 0.00 47 1010.0
20260509031428 50 180 0.0 0.0 0.00 0.00 0.00 47 1010.0
20260509030928 50 180 0.0 0.0 0.00 0.00 0.00 47 1010.0
20260509030428 50 156 0.0 0.0 0.00 0.00 0.00 46 1010.0
20260509025928 50 181 0.0 0.0 0.00 0.00 0.00 46 1010.0
20260509025428 50 155 0.0 0.0 0.00 0.00 0.00 46 1010.0
20260509024928 51 167 0.0 0.0 0.00 0.00 0.00 44 1010.0
20260509024429 51 175 0.0 0.0 0.00 0.00 0.00 44 1010.0
20260509023928 51 155 0.0 0.0 0.00 0.00 0.00 42 1010.0
20260509023428 51 177 0.0 0.0 0.00 0.00 0.00 41 1010.0
20260509022928 51 169 0.0 0.0 0.00 0.00 0.00 41 1010.0
20260509022428 51 170 0.0 0.0 0.00 0.00 0.00 41 1010.0
20260509021928 51 180 0.0 0.0 0.00 0.00 0.00 41 1010.0
20260509021428 51 167 0.0 0.0 0.00 0.00 0.00 41 1010.0
20260509020929 51 173 0.0 0.0 0.00 0.00 0.00 41 1010.0
20260509020428 51 154 0.0 0.0 0.00 0.00 0.00 40 1010.0
20260509015928 51 156 0.0 0.0 0.00 0.00 0.00 40 1010.0
20260509015428 50 159 0.0 0.0 0.00 0.00 0.00 40 1010.0
20260509014928 50 168 0.0 0.0 0.00 0.00 0.00 39 1010.0
20260509014428 51 175 0.0 0.0 0.00 0.00 0.00 39 1010.0
20260509013928 51 163 0.0 0.0 0.00 0.00 0.00 39 1010.0
20260509013428 51 171 0.0 0.0 0.00 0.00 0.00 39 1010.0
20260509012928 51 156 0.0 0.0 0.00 0.00 0.00 39 1010.0
20260509012428 51 180 0.0 0.0 0.00 0.00 0.00 39 1010.0
20260509011928 51 167 0.0 0.0 0.00 0.00 0.00 38 1010.0
20260509011429 51 180 0.0 0.0 0.00 0.00 0.00 38 1010.0
20260509010428 51 179 0.0 0.0 0.00 0.00 0.00 38 1010.0
20260509005928 50 175 0.0 0.0 0.00 0.00 0.00 38 1010.0
20260509005428 50 161 0.0 0.0 0.00 0.00 0.00 37 1010.0
20260509004928 50 157 0.0 0.0 0.00 0.00 0.00 37 1010.0
20260509004428 50 164 0.0 0.0 0.00 0.00 0.00 36 1010.0
20260509003928 50 155 0.0 0.0 0.00 0.00 0.00 36 1010.0
20260509003428 50 170 0.0 0.0 0.00 0.00 0.00 36 1010.0
20260509002928 50 154 0.0 0.0 0.00 0.00 0.00 36 1010.0
20260509002428 50 177 0.0 0.0 0.00 0.00 0.00 36 1010.0
20260509001929 50 155 0.0 0.0 0.00 0.00 0.00 35 1010.0
20260509001428 51 167 0.0 0.0 0.00 0.00 0.00 34 1010.0
20260509000928 51 165 0.0 0.0 0.00 0.00 0.00 34 1010.0
20260509000428 51 169 0.0 0.0 0.00 0.00 0.00 34 1010.0
20260508235928 51 160 0.0 0.0 0.00 0.00 0.00 34 1010.0
20260508235428 51 174 0.0 0.0 0.00 0.00 0.00 34 1010.0
20260508234928 51 181 0.0 0.0 0.00 0.00 0.00 34 1010.0
20260508234428 51 162 0.0 0.0 0.00 0.00 0.00 34 1010.0
20260508233928 51 154 0.0 0.0 0.00 0.00 0.00 34 1010.0
20260508233428 52 155 0.0 0.0 0.00 0.00 0.00 33 1010.0
20260508232928 52 155 0.0 0.0 0.00 0.00 0.00 34 1010.0
20260508232428 52 166 0.0 0.0 0.00 0.00 0.00 34 1010.0
20260508231928 52 167 0.0 0.0 0.00 0.00 0.00 32 1010.0
20260508231428 52 154 0.0 0.0 0.00 0.00 0.00 31 1010.0
20260508230928 52 154 0.0 0.0 0.00 0.00 0.00 30 1010.0
20260508230428 53 169 0.0 0.0 0.00 0.00 0.00 30 1010.0
20260508225928 53 179 0.0 0.0 0.00 0.00 0.00 30 1010.0
20260508225428 53 168 0.0 0.0 0.00 0.00 0.00 30 1010.0
20260508224928 53 158 0.0 0.0 0.00 0.00 0.00 30 1010.0
20260508224428 53 176 0.0 0.0 0.00 0.00 0.00 30 1010.0
20260508223928 53 171 0.0 0.0 0.00 0.00 0.00 29 1010.0
20260508223428 53 179 0.0 0.0 0.00 0.00 0.00 29 1010.0
20260508222928 53 164 0.0 0.0 0.00 0.00 0.00 28 1010.0
20260508222428 53 162 0.0 0.0 0.00 0.00 0.00 28 1010.0
20260508221928 54 170 0.0 0.0 0.00 0.00 0.00 28 1010.0
20260508221428 54 158 0.0 0.0 0.00 0.00 0.00 28 1010.0
20260508220928 54 180 0.0 0.0 0.00 0.00 0.00 28 1010.0
20260508215928 54 154 0.0 0.0 0.00 0.00 0.00 29 1010.0
20260508215428 54 156 0.0 0.0 0.00 0.00 0.00 29 1010.0
20260508214928 54 156 0.0 0.0 0.00 0.00 0.00 29 1010.0
20260508214428 54 160 0.0 0.0 0.00 0.00 0.00 28 1010.0
20260508213928 53 155 0.0 0.0 0.00 0.00 0.00 28 1010.0
20260508213428 53 177 0.0 0.0 0.00 0.00 0.00 29 1010.0
20260508212928 53 156 0.0 0.0 0.00 0.00 0.00 28 1010.0
20260508212428 53 156 0.0 0.0 0.00 0.00 0.00 28 1010.0
20260508211928 53 155 0.0 0.0 0.00 0.00 0.00 29 1010.0
20260508211428 54 154 0.0 0.0 0.00 0.00 0.00 30 1010.0
20260508210928 54 170 0.0 0.0 0.00 0.00 0.00 33 1010.0
20260508210428 54 155 0.0 0.0 0.00 0.00 0.00 28 1010.0
20260508205928 54 171 0.0 0.0 0.00 0.00 0.00 27 1010.0
20260508205428 53 156 0.0 0.0 0.00 0.00 0.00 28 1010.0
20260508204928 53 165 0.0 0.0 0.00 0.00 0.00 10 1010.0
20260508204428 53 178 0.0 0.0 0.00 0.00 0.00 10 1010.0
20260508203928 53 172 0.0 0.0 0.00 0.00 0.00 10 1010.0
20260508203428 53 174 0.0 0.0 0.00 0.00 0.00 10 1010.0
20260508202928 53 183 0.0 0.0 0.00 0.00 0.00 10 1010.0
20260508202431 53 182 0.0 0.0 0.00 0.00 0.00 10 1010.0
20260508201928 53 165 0.0 0.0 0.00 0.00 0.00 10 1010.0
20260508201428 53 167 0.0 0.0 0.00 0.00 0.00 10 1010.0
20260508200928 53 160 0.0 0.0 0.00 0.00 0.00 10 1010.0
20260508200428 53 161 0.0 0.0 0.00 0.00 0.00 10 1010.0
20260508195928 53 158 0.0 0.0 0.00 0.00 0.00 10 1010.0
20260508195428 53 184 0.0 0.0 0.00 0.00 0.00 10 1010.0
20260508194928 53 183 0.0 0.0 0.00 0.00 0.00 10 1010.0
20260508194428 53 184 0.0 0.0 0.00 0.00 0.00 10 1010.0
20260508193928 53 159 0.0 0.0 0.00 0.00 0.00 10 1010.0
20260508193428 53 161 0.0 0.0 0.00 0.00 0.00 10 1010.0
20260508192928 54 183 0.0 0.0 0.00 0.00 0.00 10 1010.0
20260508192428 54 166 0.0 0.0 0.00 0.00 0.00 10 1010.0
20260508191928 54 162 0.0 0.0 0.00 0.00 0.00 10 1010.0
20260508191428 54 160 0.0 0.0 0.00 0.00 0.00 10 1010.0
20260508190928 54 160 0.0 0.0 0.00 0.00 0.00 10 1010.0
20260508190433 54 165 0.0 0.0 0.00 0.00 0.00 10 1010.0
20260508185928 54 162 0.0 0.0 0.00 0.00 0.00 10 1009.0
20260508185428 54 162 0.0 0.0 0.00 0.00 0.00 10 1009.0
20260508184928 54 179 0.0 0.0 0.00 0.00 0.00 10 1009.0
20260508184428 54 170 0.0 0.0 0.00 0.00 0.00 10 1009.0
20260508183928 54 172 0.0 0.0 0.00 0.00 0.00 10 1009.0
20260508183428 54 179 0.0 0.0 0.00 0.00 0.00 10 1009.0
20260508182928 54 165 0.0 0.0 0.00 0.00 0.00 10 1009.0
20260508182428 54 178 0.0 0.0 0.00 0.00 0.00 10 1009.0
20260508181928 54 172 0.0 0.0 0.00 0.00 0.00 10 1009.0
20260508181428 54 184 0.0 0.0 0.00 0.00 0.00 10 1009.0
20260508180928 54 160 0.0 0.0 0.00 0.00 0.00 10 1009.0
20260508180428 54 157 0.0 0.0 0.00 0.00 0.00 10 1009.0
20260508175928 54 157 0.0 0.0 0.00 0.00 0.00 10 1009.0
20260508175428 55 178 0.0 0.0 0.00 0.00 0.00 10 1009.0
20260508174928 55 178 0.0 0.0 0.00 0.00 0.00 10 1009.0
20260508174431 56 175 0.0 0.0 0.00 0.00 0.00 10 1009.0
20260508173928 56 182 0.0 0.0 0.00 0.00 0.00 10 1009.0
20260508173428 57 156 0.0 0.0 0.00 0.00 0.00 10 1009.0
20260508172928 57 156 0.0 0.0 0.00 0.00 0.00 10 1009.0
20260508171932 60 181 0.0 0.0 0.00 0.00 0.00 10 1009.0
20260508171428 60 157 0.0 0.0 0.00 0.00 0.00 10 1009.0
20260508170928 61 183 0.0 0.0 0.00 0.00 0.00 10 1009.0
20260508170428 62 159 0.0 0.0 0.00 0.00 0.00 10 1009.0
20260508165928 62 184 0.0 0.0 0.00 0.00 0.00 10 1008.0
20260508165428 62 173 0.0 0.0 0.00 0.00 0.00 10 1008.0
20260508164928 63 158 0.0 0.0 0.00 0.00 0.00 10 1008.0
20260508164428 63 178 0.0 0.0 0.00 0.00 0.00 10 1008.0
20260508163928 63 164 0.0 0.0 0.00 0.00 0.00 10 1008.0
20260508163431 64 181 0.0 0.0 0.00 0.00 0.00 10 1008.0
20260508162928 63 169 0.0 0.0 0.00 0.00 0.00 10 1009.0
20260508162428 64 182 0.0 0.0 0.00 0.00 0.00 10 1009.0
20260508161928 64 164 0.0 0.0 0.00 0.00 0.00 10 1009.0
20260508161428 64 162 0.0 0.0 0.00 0.00 0.00 10 1009.0
20260508160928 63 158 0.0 0.0 0.00 0.00 0.00 10 1009.0
20260508160428 64 177 0.0 0.0 0.00 0.00 0.00 10 1009.0
20260508155928 64 176 0.0 0.0 0.00 0.00 0.00 10 1009.0
20260508155428 64 180 0.0 0.0 0.00 0.00 0.00 10 1009.0
20260508154928 64 166 0.0 0.0 0.00 0.00 0.00 10 1009.0
20260508154428 63 171 0.0 0.0 0.00 0.00 0.00 10 1009.0
20260508153928 62 178 0.0 0.0 0.00 0.00 0.00 10 1009.0
20260508153428 62 184 0.0 0.0 0.00 0.00 0.00 10 1009.0
20260508152928 62 184 0.0 0.0 0.00 0.00 0.00 10 1009.0
20260508152428 63 171 0.0 0.0 0.00 0.00 0.00 10 1009.0
20260508151928 63 169 0.0 0.0 0.00 0.00 0.00 10 1009.0
20260508151428 63 165 0.0 0.0 0.00 0.00 0.00 10 1009.0
20260508150928 62 166 0.0 0.0 0.00 0.00 0.00 10 1009.0
20260508150428 62 185 0.0 0.0 0.00 0.00 0.00 10 1009.0
20260508145928 62 186 0.0 0.0 0.00 0.00 0.00 10 1009.0
20260508145428 62 170 0.0 0.0 0.00 0.00 0.00 10 1009.0
20260508144928 61 167 0.0 0.0 0.00 0.00 0.00 10 1009.0
20260508144430 61 162 0.0 0.0 0.00 0.00 0.00 10 1009.0
20260508143928 60 170 0.0 0.0 0.00 0.00 0.00 10 1009.0
20260508143428 60 170 0.0 0.0 0.00 0.00 0.00 10 1009.0
20260508142928 60 187 0.0 0.0 0.00 0.00 0.00 10 1009.0
20260508142432 60 176 0.0 0.0 0.00 0.00 0.00 10 1009.0
20260508141928 59 186 0.0 0.0 0.00 0.00 0.00 10 1009.0
20260508141428 60 188 0.0 0.0 0.00 0.00 0.00 10 1009.0
20260508140931 60 162 0.0 0.0 0.00 0.00 0.00 10 1009.0
20260508140557 60 185 0.0 0.0 0.00 0.00 0.00 10 1009.0
20260508140432 60 185 0.0 0.0 0.00 0.00 0.00 10 1009.0
20260508135428 62 188 0.0 0.0 0.00 0.00 0.00 10 1009.0
20260508134928 63 173 0.0 0.0 0.00 0.00 0.00 10 1009.0
20260508134428 62 175 0.0 0.0 0.00 0.00 0.00 10 1009.0
20260508133928 62 186 0.0 0.0 0.00 0.00 0.00 10 1009.0
20260508133429 62 189 0.0 0.0 0.00 0.00 0.00 10 1009.0
20260508132928 62 189 0.0 0.0 0.00 0.00 0.00 10 1009.0
20260508132428 62 182 0.0 0.0 0.00 0.00 0.00 10 1009.0
20260508131928 63 182 0.0 0.0 0.00 0.00 0.00 10 1009.0
20260508131428 64 174 0.0 0.0 0.00 0.00 0.00 10 1009.0
20260508130928 63 165 0.0 0.0 0.00 0.00 0.00 10 1009.0
20260508130428 63 177 0.0 0.0 0.00 0.00 0.00 10 1009.0
20260508125928 62 189 0.0 0.0 0.00 0.00 0.00 10 1009.0
20260508125428 61 165 0.0 0.0 0.00 0.00 0.00 10 1009.0
20260508124928 61 165 0.0 0.0 0.00 0.00 0.00 10 1009.0
20260508124428 62 182 0.0 0.0 0.00 0.00 0.00 10 1009.0
20260508123928 62 167 0.0 0.0 0.00 0.00 0.00 10 1009.0
20260508123428 62 177 0.0 0.0 0.00 0.00 0.00 10 1009.0
20260508122928 61 171 0.0 0.0 0.00 0.00 0.00 10 1009.0
20260508122428 60 182 0.0 0.0 0.00 0.00 0.00 10 1009.0
20260508121928 60 170 0.0 0.0 0.00 0.00 0.00 10 1009.0
20260508121428 61 189 0.0 0.0 0.00 0.00 0.00 10 1008.0
20260508120928 61 173 0.0 0.0 0.00 0.00 0.00 10 1008.0
20260508120428 60 167 0.0 0.0 0.00 0.00 0.00 10 1008.0
20260508115928 60 176 0.0 0.0 0.00 0.00 0.00 10 1008.0
20260508115428 60 172 0.0 0.0 0.00 0.00 0.00 10 1008.0
20260508114928 59 180 0.0 0.0 0.00 0.00 0.00 10 1008.0
20260508114428 60 164 0.0 0.0 0.00 0.00 0.00 10 1008.0
20260508113928 60 162 0.0 0.0 0.00 0.00 0.00 10 1008.0
20260508113428 60 164 0.0 0.0 0.00 0.00 0.00 10 1008.0
20260508112928 61 184 0.0 0.0 0.00 0.00 0.00 10 1008.0
20260508112428 61 180 0.0 0.0 0.00 0.00 0.00 10 1008.0
20260508111928 60 161 0.0 0.0 0.00 0.00 0.00 10 1008.0
20260508111428 60 181 0.0 0.0 0.00 0.00 0.00 10 1008.0
20260508110928 60 168 0.0 0.0 0.00 0.00 0.00 10 1008.0
20260508110428 59 172 0.0 0.0 0.00 0.00 0.00 10 1008.0
20260508105928 59 170 0.0 0.0 0.00 0.00 0.00 10 1008.0
20260508105428 59 183 0.0 0.0 0.00 0.00 0.00 10 1008.0
20260508104928 59 159 0.0 0.0 0.00 0.00 0.00 10 1008.0
20260508103928 59 158 0.0 0.0 0.00 0.00 0.00 10 1008.0
20260508103428 59 181 0.0 0.0 0.00 0.00 0.00 10 1008.0
20260508102428 59 167 0.0 0.0 0.00 0.00 0.00 10 1008.0
20260508101928 60 161 0.0 0.0 0.00 0.00 0.00 10 1008.0
20260508101428 60 178 0.0 0.0 0.00 0.00 0.00 10 1008.0
20260508100928 60 168 0.0 0.0 0.00 0.00 0.00 10 1008.0
20260508100428 60 170 0.0 0.0 0.00 0.00 0.00 10 1008.0
20260508095928 61 178 0.0 0.0 0.00 0.00 0.00 10 1008.0
20260508095428 60 155 0.0 0.0 0.00 0.00 0.00 10 1008.0
20260508094928 59 154 0.0 0.0 0.00 0.00 0.00 10 1008.0
20260508094431 59 162 0.0 0.0 0.00 0.00 0.00 10 1008.0
20260508093928 60 178 0.0 0.0 0.00 0.00 0.00 10 1008.0
20260508093428 60 175 0.0 0.0 0.00 0.00 0.00 10 1008.0
20260508092928 60 154 0.0 0.0 0.00 0.00 0.00 10 1008.0
20260508092428 59 179 0.0 0.0 0.00 0.00 0.00 10 1008.0
20260508091928 60 177 0.0 0.0 0.00 0.00 0.00 10 1008.0
20260508091428 59 157 0.0 0.0 0.00 0.00 0.00 10 1008.0
20260508090928 59 165 0.0 0.0 0.00 0.00 0.00 10 1008.0
20260508090428 58 179 0.0 0.0 0.00 0.00 0.00 10 1008.0
20260508085928 58 156 0.0 0.0 0.00 0.00 0.00 10 1007.0
20260508085428 58 158 0.0 0.0 0.00 0.00 0.00 10 1007.0
20260508084928 58 155 0.0 0.0 0.00 0.00 0.00 10 1007.0
20260508084428 58 157 0.0 0.0 0.00 0.00 0.00 10 1007.0